SILO ALERT LOG


Silo ID Alert Type Alert Message Silo Type Points Depth (mm) Strength Temperature (°C) Humidity (%) Height (mm) Volume (㎥) Weight (t) Flag Time
WJWJR05 Humidity 습도센서 측정값이 80% 초과 56 7620 2650 28.8 89 99 11.31 7.15 0 2026-07-22 13:25:50.000
WJWJR01 Humidity 습도센서 측정값이 80% 초과 84 7690 1019 27.7 96.9 -50 -5.655 0 0 2026-07-22 12:26:01.000
WJWJR05 Humidity 습도센서 측정값이 80% 초과 58 7690 2644 28.2 88.6 29 3.393 2.145 0 2026-07-22 12:25:47.000
WJWJR01 Humidity 습도센서 측정값이 80% 초과 84 7660 1030 26.4 96.7 -20 -2.262 0 0 2026-07-22 11:26:03.000
WJWJR05 Humidity 습도센서 측정값이 80% 초과 62 7640 2612 27.1 86.1 80 9.048 5.72 0 2026-07-22 11:25:46.000
WJWJR01 Humidity 습도센서 측정값이 80% 초과 76 7680 1063 25.3 96.6 -40 -4.524 0 0 2026-07-22 10:26:05.000
WJWJR05 Humidity 습도센서 측정값이 80% 초과 58 7700 2617 26.4 83.3 19 2.262 1.43 0 2026-07-22 10:25:46.000
WJWJR01 Humidity 습도센서 측정값이 80% 초과 76 7660 1045 25 96.5 -20 -2.262 0 0 2026-07-22 09:25:59.000
WJWJR05 Humidity 습도센서 측정값이 80% 초과 61 7710 2612 26.1 82.3 9 1.131 0.715 0 2026-07-22 09:25:46.000
WJWJR01 Humidity 습도센서 측정값이 80% 초과 76 7690 1078 24.7 96.2 -50 -5.655 0 0 2026-07-22 08:26:02.000
WJWJR05 Humidity 습도센서 측정값이 80% 초과 61 7700 2554 25.9 82.4 19 2.262 1.43 0 2026-07-22 08:25:48.000
WJWJR01 Humidity 습도센서 측정값이 80% 초과 76 7660 1053 24.5 96.4 -20 -2.262 0 0 2026-07-22 07:26:05.000
WJWJR05 Humidity 습도센서 측정값이 80% 초과 56 7670 2611 26 82.4 49 5.655 3.575 0 2026-07-22 07:25:44.000
WJWJR01 Humidity 습도센서 측정값이 80% 초과 83 7700 1061 24.6 96.3 -60 -6.786 0 0 2026-07-22 06:25:58.000
WJWJR05 Humidity 습도센서 측정값이 80% 초과 61 7740 2534 26.1 82.4 -20 -2.262 0 0 2026-07-22 06:25:47.000
WJWJR01 Humidity 습도센서 측정값이 80% 초과 82 7680 1039 24.7 96.1 -40 -4.524 0 0 2026-07-22 05:25:57.000
WJWJR05 Humidity 습도센서 측정값이 80% 초과 58 7620 2571 26.1 82.4 99 11.31 7.15 0 2026-07-22 05:25:47.000
WJWJR01 Humidity 습도센서 측정값이 80% 초과 82 7740 1051 24.7 96.1 -100 -11.31 0 0 2026-07-22 04:25:56.000
WJWJR05 Humidity 습도센서 측정값이 80% 초과 59 7710 2552 26.2 82.4 9 1.131 0.715 0 2026-07-22 04:25:46.000
WJWJR01 Humidity 습도센서 측정값이 80% 초과 72 7670 1033 24.8 96 -30 -3.393 0 0 2026-07-22 03:26:00.000

[첫 페이지] [22] [23] [24] [25] 26 [27] [28] [29] [30] [마지막 페이지]